Location: Audinghen
(50.8518°N, 1.6129°E)
Time: 17:15:41
(UTC+00:00)

FALCON 9 DEB - Pass Details

Date: 07 August 2020
Orbit: 427 x 441 km, 53.0° (Epoch: 25 September)

Event Time Altitude Azimuth Distance (km) Brightness Sun altitude
Rises 03:22:06 0° 289° (WNW) 2,433 6.6 -9.6°
Reaches altitude 10° 03:24:19 10° 281° (W) 1,559 5.6 -9.3°
Maximum altitude 03:27:35 37° 213° (SSW) 704 3.7 -8.9°
Drops below altitude 10° 03:30:48 10° 145° (SE) 1,544 5.9 -8.5°
Sets 03:32:59 0° 137° (SE) 2,406 7.0 -8.2°
